Location: Ab? ar R?sh Ba?r?
(24.1861°N, 32.8847°E)
Time: 05:17:27
(UTC+00:00)

CZ-4B R/B - Pass Details

Date: 24 May 2022
Orbit: 809 x 881 km, 99.1° (Epoch: 01 July)

Event Time Altitude Azimuth Distance (km) Brightness Sun altitude
Rises 17:52:01 0° 211° (SSW) 3,317 6.3 -17.6°
Reaches altitude 10° 17:55:48 10° 239° (WSW) 2,396 5.9 -18.3°
Maximum altitude 17:58:03 13° 264° (W) 2,218 6.1 -18.7°
Drops below altitude 10° 18:00:18 10° 290° (WNW) 2,413 6.7 -19.1°
Sets 18:04:10 0° 318° (NW) 3,364 7.8 -19.8°
